Weather History for KOLS - February, 2013

Change the Weather History Date:

Sunday, February 3, 2013

  Actual Average (KTUS) Record (KTUS)
Temperature  
Mean Temperature 56 °F 54 °F  
Max Temperature 64 °F 67 °F 86 °F (1925)
Min Temperature 48 °F 41 °F 18 °F (2011)
Degree Days  
Heating Degree Days 9 11  
Month to date heating degree days 33  
Since 1 July heating degree days 1027  
Cooling Degree Days 0 0  
Month to date cooling degree days 0  
Year to date cooling degree days 1  
Growing Degree Days 6 (Base 50)    
Moisture  
Dew Point 30 °F    
Average Humidity 41    
Maximum Humidity 59    
Minimum Humidity 19    
Precipitation  
Precipitation 0.00 in 0.03 in 0.45 in (1927)
Month to date precipitation 0.10  
Year to date precipitation 1.04  
Sea Level Pressure  
Sea Level Pressure 29.98 in    
Wind  
Wind Speed 3 mph (ESE)    
Max Wind Speed 8 mph    
Max Gust Speed -    
Visibility 10 miles    
Events Rain    
T = Trace of Precipitation, MM = Missing Value Source: NWS Daily Summary

Daily Weather History Graph

Daily Weather History Graph

Search for Another Location

Airport or City:

Trip Planner

Search our weather history database for the weather conditions in past years. The results will help you decide how hot, cold, wet, or windy it might be!

Date:

Astronomy

Feb. 03, 2013 Rise Set
Actual Time 7:14 AM MST 6:00 PM MST
Civil Twilight 6:49 AM MST 6:25 PM MST
Nautical Twilight 6:20 AM MST 6:54 PM MST
Astronomical Twilight 5:51 AM MST 7:23 PM MST
Moon 12:44 AM MST (2/3) 11:42 AM MST (2/3)
Length of Visible Light 11h 36m
Length of Day
10h 46m
Waning Gibbous, 48% of the Moon is Illuminated
Feb 3
Waning Gibbous
Feb 10
New
Feb 17
First Quarter
Feb 25
Full
Mar 4
Last Quarter

Hourly Weather History & Observations

Time (MST) Temp. Dew Point Humidity Pressure Visibility Wind Dir Wind Speed Gust Speed Precip Events Conditions
12:54 AM 50.0 °F 27.0 °F 41% 30.06 in 10.0 mi NE 4.6 mph - N/A   Scattered Clouds
1:54 AM 51.1 °F 26.1 °F 38% 30.03 in 10.0 mi SSE 3.5 mph - N/A   Clear
2:54 AM 50.0 °F 27.0 °F 41% 30.01 in 10.0 mi ENE 3.5 mph - N/A   Clear
3:54 AM 48.9 °F 27.0 °F 43% 30.00 in 10.0 mi NE 4.6 mph - N/A   Clear
4:54 AM 48.0 °F 27.0 °F 44% 29.99 in 10.0 mi Calm Calm - N/A   Mostly Cloudy
5:54 AM 48.9 °F 26.1 °F 41% 29.99 in 10.0 mi Calm Calm - N/A   Clear
6:54 AM 48.0 °F 28.9 °F 48% 30.01 in 10.0 mi Calm Calm - N/A   Partly Cloudy
7:54 AM 48.0 °F 30.0 °F 50% 30.01 in 10.0 mi Calm Calm - N/A   Mostly Cloudy
8:54 AM 52.0 °F 28.9 °F 41% 30.01 in 10.0 mi Calm Calm - N/A   Overcast
9:54 AM 55.0 °F 30.0 °F 38% 30.02 in 10.0 mi Calm Calm - N/A   Overcast
10:54 AM 61.0 °F 23.0 °F 23% 30.00 in 10.0 mi Calm Calm - N/A   Overcast
11:54 AM 64.9 °F 21.9 °F 19% 29.98 in 10.0 mi WNW 6.9 mph - N/A   Mostly Cloudy
12:54 PM 64.9 °F 21.0 °F 19% 29.96 in 10.0 mi West 5.8 mph - N/A   Overcast
1:54 PM 62.1 °F 30.9 °F 31% 29.96 in 10.0 mi NNW 8.1 mph - 0.00 in Rain Light Rain
2:54 PM 62.1 °F 34.0 °F 35% 29.94 in 10.0 mi Variable 3.5 mph - 0.00 in   Overcast
3:54 PM 63.0 °F 32.0 °F 31% 29.92 in 10.0 mi Calm Calm - N/A   Partly Cloudy
4:54 PM 64.9 °F 32.0 °F 29% 29.91 in 10.0 mi SW 4.6 mph - N/A   Scattered Clouds
5:54 PM 61.0 °F 33.1 °F 35% 29.92 in 10.0 mi South 3.5 mph - N/A   Partly Cloudy
6:54 PM 52.0 °F 35.1 °F 53% 29.96 in 10.0 mi East 4.6 mph - N/A   Clear
7:54 PM 51.1 °F 35.1 °F 54% 29.96 in 10.0 mi Calm Calm - N/A   Clear
8:54 PM 51.1 °F 34.0 °F 52% 29.97 in 10.0 mi SSE 3.5 mph - N/A   Overcast
9:54 PM 50.0 °F 35.1 °F 57% 29.97 in 10.0 mi East 4.6 mph - N/A   Overcast
10:54 PM 50.0 °F 35.1 °F 57% 29.95 in 10.0 mi Calm Calm - N/A   Overcast
11:54 PM 50.0 °F 36.0 °F 59% 29.94 in 10.0 mi SSE 3.5 mph - N/A   Overcast